CAPE
0 0 0 0 0 0 0 0 0 0 0 0 0 0 0 0 0 0 0 0 0 0 0 0 0 0 0 0 0 0 0 0 0 0 0 1 2 16 13 20 350 381 342 608 660 805 651 1071 968
0 0 0 0 0 0 0 0 0 0 0 0 0 0 0 0 0 0 0 0 0 0 0 0 0 0 0 0 0 0 0 0 0 0 0 0 0 6 15 13 15 274 442 324 515 670 824 846 818
0 0 0 0 0 0 0 0 0 0 0 0 0 0 0 0 0 0 0 0 0 0 0 0 0 0 0 0 0 0 0 0 0 0 0 0 0 0 12 12 10 33 307 301 350 506 615 726 729
0 0 0 0 0 0 0 0 0 0 0 0 0 0 0 0 0 0 0 0 0 0 0 0 0 0 0 0 0 0 0 0 0 0 0 0 0 0 1 10 8 9 39 261 247 366 444 631 665
0 0 0 0 0 0 0 0 0 0 0 0 0 0 0 0 0 0 0 0 0 0 0 0 0 0 0 0 0 0 0 0 0 0 0 0 0 0 0 6 9 9 10 254 164 277 393 624 592
0 0 0 0 0 0 0 0 0 0 0 0 0 0 0 0 0 0 0 0 0 0 0 0 0 0 0 0 0 0 0 0 0 0 0 0 0 0 0 1 11 8 15 8 189 246 366 478 584
0 0 0 0 0 0 0 0 0 0 0 0 0 0 0 0 0 0 0 0 0 0 0 0 0 0 0 0 0 0 0 0 0 0 0 0 0 0 0 0 6 7 8 9 6 233 397 391 562
0 0 0 0 0 0 0 0 0 0 0 0 0 0 0 0 0 0 0 0 0 0 0 0 0 0 0 0 0 0 0 0 0 0 0 0 0 0 0 0 0 5 7 7 7 55 298 376 456
0 0 0 0 0 0 0 0 0 0 0 0 0 0 0 0 0 0 0 0 0 0 0 0 0 0 0 0 0 0 0 0 0 0 0 0 0 0 0 0 0 1 2 7 7 8 9 272 222
0 0 0 0 0 0 0 0 0 0 0 0 0 0 0 0 0 0 0 0 0 0 0 0 0 0 0 0 0 0 0 0 0 0 0 0 0 0 0 0 0 0 0 1 5 5 7 42 186
0 0 0 0 0 0 0 0 0 0 0 0 0 0 0 0 0 0 0 0 0 0 0 0 0 0 0 0 0 0 0 0 0 0 0 0 0 0 0 0 0 0 0 0 0 0 2 0 95
0 0 0 0 0 0 0 0 0 0 0 0 0 0 0 0 0 0 0 0 0 0 0 0 0 0 0 0 0 0 0 0 0 0 0 0 0 0 0 0 0 0 0 0 0 0 2 0 3
0 0 0 0 0 0 0 0 0 0 0 0 0 0 0 0 0 0 0 0 0 0 0 0 0 0 0 0 0 0 0 0 0 0 0 0 0 0 0 0 0 0 0 0 0 3 1 0 3
0 0 0 0 0 0 0 0 0 0 0 0 0 0 0 0 0 0 0 0 0 0 0 0 0 0 0 0 0 0 0 0 0 0 0 0 0 0 0 0 0 0 0 0 0 0 2 0 2
0 0 0 0 0 0 0 0 0 0 0 0 0 0 0 0 0 0 0 0 0 0 0 0 0 0 0 0 0 0 0 0 0 0 0 0 0 0 0 0 0 0 0 0 0 0 2 1 2
0 0 0 0 0 0 0 0 0 0 0 0 0 0 0 0 0 0 0 0 0 0 0 0 0 0 0 0 0 0 0 0 0 0 0 0 0 0 0 0 0 0 0 0 0 0 2 1 0
0 0 0 0 0 0 0 0 0 0 0 0 0 0 0 0 0 0 0 0 0 0 0 0 0 0 0 0 0 0 0 0 0 0 0 0 0 0 0 0 0 0 0 0 0 0 1 1 2
0 0 0 0 0 0 0 0 0 0 0 0 0 0 0 0 0 0 0 0 0 0 0 0 0 0 0 0 0 0 0 0 0 0 0 0 0 0 0 0 0 0 0 0 0 0 0 3 3
0 0 0 0 0 0 0 0 0 0 0 0 0 0 0 0 0 0 0 0 0 0 0 0 0 0 0 0 0 0 0 0 0 0 0 0 0 0 0 0 0 0 0 0 0 0 0 0 0
0 0 0 0 0 0 0 0 0 0 0 0 0 0 0 0 0 0 0 0 0 0 0 0 0 0 0 0 0 0 0 0 0 0 0 0 0 0 0 0 0 0 0 0 0 0 0 1 0
0 0 0 0 0 0 0 0 0 0 0 0 0 0 0 0 0 0 0 0 0 0 0 0 0 0 0 0 0 0 0 0 0 0 0 0 0 0 0 0 0 0 0 0 0 0 0 0 1
0 0 0 0 0 0 0 0 0 0 0 0 0 0 0 0 0 0 0 0 0 0 0 0 0 0 0 0 0 0 0 0 0 0 0 0 0 0 0 0 0 0 0 0 0 0 0 0 1
0 0 0 0 0 0 0 0 0 0 0 0 0 0 0 0 0 0 0 0 0 0 0 0 0 0 0 0 0 0 0 0 0 0 0 0 0 0 0 0 0 0 0 0 0 0 0 0 0
0 0 0 0 0 0 0 0 0 0 0 0 0 0 0 0 0 0 0 0 0 0 0 0 0 0 0 0 0 0 0 0 0 0 0 0 0 0 0 0 0 0 0 0 0 0 0 0 0
0 0 0 0 0 0 0 0 0 0 0 0 0 0 0 0 0 0 0 0 0 0 0 0 0 0 0 0 0 0 0 0 0 0 0 0 0 0 0 0 0 0 0 0 0 0 0 0 0
0 0 0 0 0 0 0 0 0 0 0 0 0 0 0 0 0 0 0 0 0 0 0 0 0 0 0 0 0 0 0 0 0 0 0 0 0 0 0 0 0 0 0 0 0 0 0 0 0
0 0 0 0 0 0 0 0 0 0 0 0 0 0 0 0 0 0 0 0 0 0 0 0 0 0 0 0 0 0 0 0 0 0 0 0 0 0 0 0 0 0 0 0 0 0 0 0 0
0 0 0 0 0 0 0 0 0 0 0 0 0 0 0 0 0 0 0 0 0 0 0 0 0 0 0 0 0 0 0 0 0 0 0 0 0 0 0 0 0 0 0 0 0 0 0 0 0
0 0 0 0 0 0 0 0 0 0 0 0 0 0 0 0 0 0 0 0 0 0 0 0 0 0 0 0 0 0 0 0 0 0 0 0 0 0 0 0 0 0 0 0 0 0 0 0 0
0 0 0 0 0 0 0 0 0 0 0 0 0 0 0 0 0 0 0 0 0 0 0 0 0 0 0 0 0 0 0 0 0 0 0 0 0 0 0 0 0 0 0 0 0 0 0 0 0
CIN
0 0 0 0 0 0 0 0 0 0 0 0 0 0 0 0 0 0 0 0 0 0 0 0 0 0 0 0 0 0 0 0 0 0 0 0 0 0 0 -53 -1 -2 -2 -3 -3 -1 -1 0 0
0 0 0 0 0 0 0 0 0 0 0 0 0 0 0 0 0 0 0 0 0 0 0 0 0 0 0 0 0 0 0 0 0 0 0 0 0 0 0 0 -23 -4 0 -5 -6 -5 0 -1 0
0 0 0 0 0 0 0 0 0 0 0 0 0 0 0 0 0 0 0 0 0 0 0 0 0 0 0 0 0 0 0 0 0 0 0 0 0 -1 0 0 0 -70 -4 -3 -5 -5 -5 -4 -1
0 0 0 0 0 0 0 0 0 0 0 0 0 0 0 0 0 0 0 0 0 0 0 0 0 0 0 0 0 0 0 0 0 0 0 0 0 0 0 0 0 0 -106 -12 -5 -3 -14 -5 -2
0 0 0 0 0 0 0 0 0 0 0 0 0 0 0 0 0 0 0 0 0 0 0 0 0 0 0 0 0 0 0 0 0 0 0 0 0 0 0 0 0 0 0 -4 -9 -2 -25 -6 -3
0 0 0 0 0 0 0 0 0 0 0 0 0 0 0 0 0 0 0 0 0 0 0 0 0 0 0 0 0 0 0 0 0 0 0 0 0 0 0 0 0 0 0 0 0 -1 -9 -15 -4
0 0 0 0 0 0 0 0 0 0 0 0 0 0 0 0 0 0 0 0 0 0 0 0 0 0 0 0 0 0 0 0 0 0 0 0 0 0 0 0 0 0 0 0 -13 -2 0 -24 -6
0 0 0 0 0 0 0 0 0 0 0 0 0 0 0 0 0 0 0 0 0 0 0 0 0 0 0 0 0 0 0 0 0 0 0 0 0 0 0 0 0 0 0 0 0 -32 -4 -1 -12
0 0 0 0 0 0 0 0 0 0 0 0 0 0 0 0 0 0 0 0 0 0 0 0 0 0 0 0 0 0 0 0 0 0 0 0 0 0 0 0 0 0 0 0 0 0 -34 0 -15
0 0 0 0 0 0 0 0 0 0 0 0 0 0 0 0 0 0 0 0 0 0 0 0 0 0 0 0 0 0 0 0 0 0 0 0 0 0 0 0 0 0 0 0 0 0 0 -8 -4
0 0 0 0 0 0 0 0 0 0 0 0 0 0 0 0 0 0 0 0 0 0 0 0 0 0 0 0 0 0 0 0 0 0 0 0 0 0 0 0 0 0 0 0 0 0 0 0 -1
0 0 0 0 0 0 0 0 0 0 0 0 0 0 0 0 0 0 0 0 0 0 0 0 0 0 0 0 0 0 0 0 0 0 0 0 0 0 0 0 0 0 0 0 0 0 0 0 0
0 0 0 0 0 0 0 0 0 0 0 0 0 0 0 0 0 0 0 0 0 0 0 0 0 0 0 0 0 0 0 0 0 0 0 0 0 0 0 0 0 0 0 0 0 0 0 0 0
0 0 0 0 0 0 0 0 0 0 0 0 0 0 0 0 0 0 0 0 0 0 0 0 0 0 0 0 0 0 0 0 0 0 0 0 0 0 0 0 0 0 0 0 0 0 0 0 0
0 0 0 0 0 0 0 0 0 0 0 0 0 0 0 0 0 0 0 0 0 0 0 0 0 0 0 0 0 0 0 0 0 0 0 0 0 0 0 0 0 0 0 0 0 0 0 0 0
0 0 0 0 0 0 0 0 0 0 0 0 0 0 0 0 0 0 0 0 0 0 0 0 0 0 0 0 0 0 0 0 0 0 0 0 0 0 0 0 0 0 0 0 0 0 0 0 0
0 0 0 0 0 0 0 0 0 0 0 0 0 0 0 0 0 0 0 0 0 0 0 0 0 0 0 0 0 0 0 0 0 0 0 0 0 0 0 0 0 0 0 0 0 0 0 0 0
0 0 0 0 0 0 0 0 0 0 0 0 0 0 0 0 0 0 0 0 0 0 0 0 0 0 0 0 0 0 0 0 0 0 0 0 0 0 0 0 0 0 0 0 0 0 0 0 0
0 0 0 0 0 0 0 0 0 0 0 0 0 0 0 0 0 0 0 0 0 0 0 0 0 0 0 0 0 0 0 0 0 0 0 0 0 0 0 0 0 0 0 0 0 0 0 0 0
0 0 0 0 0 0 0 0 0 0 0 0 0 0 0 0 0 0 0 0 0 0 0 0 0 0 0 0 0 0 0 0 0 0 0 0 0 0 0 0 0 0 0 0 0 0 0 0 0
0 0 0 0 0 0 0 0 0 0 0 0 0 0 0 0 0 0 0 0 0 0 0 0 0 0 0 0 0 0 0 0 0 0 0 0 0 0 0 0 0 0 0 0 0 0 0 0 0
0 0 0 0 0 0 0 0 0 0 0 0 0 0 0 0 0 0 0 0 0 0 0 0 0 0 0 0 0 0 0 0 0 0 0 0 0 0 0 0 0 0 0 0 0 0 0 0 0
0 0 0 0 0 0 0 0 0 0 0 0 0 0 0 0 0 0 0 0 0 0 0 0 0 0 0 0 0 0 0 0 0 0 0 0 0 0 0 0 0 0 0 0 0 0 0 0 0
0 0 0 0 0 0 0 0 0 0 0 0 0 0 0 0 0 0 0 0 0 0 0 0 0 0 0 0 0 0 0 0 0 0 0 0 0 0 0 0 0 0 0 0 0 0 0 0 0
0 0 0 0 0 0 0 0 0 0 0 0 0 0 0 0 0 0 0 0 0 0 0 0 0 0 0 0 0 0 0 0 0 0 0 0 0 0 0 0 0 0 0 0 0 0 0 0 0
0 0 0 0 0 0 0 0 0 0 0 0 0 0 0 0 0 0 0 0 0 0 0 0 0 0 0 0 0 0 0 0 0 0 0 0 0 0 0 0 0 0 0 0 0 0 0 0 0
0 0 0 0 0 0 0 0 0 0 0 0 0 0 0 0 0 0 0 0 0 0 0 0 0 0 0 0 0 0 0 0 0 0 0 0 0 0 0 0 0 0 0 0 0 0 0 0 0
0 0 0 0 0 0 0 0 0 0 0 0 0 0 0 0 0 0 0 0 0 0 0 0 0 0 0 0 0 0 0 0 0 0 0 0 0 0 0 0 0 0 0 0 0 0 0 0 0
0 0 0 0 0 0 0 0 0 0 0 0 0 0 0 0 0 0 0 0 0 0 0 0 0 0 0 0 0 0 0 0 0 0 0 0 0 0 0 0 0 0 0 0 0 0 0 0 0
0 0 0 0 0 0 0 0 0 0 0 0 0 0 0 0 0 0 0 0 0 0 0 0 0 0 0 0 0 0 0 0 0 0 0 0 0 0 0 0 0 0 0 0 0 0 0 0 0
Wind_Speed
12 11 12 15 18 18 19 18 18 19 17 17 19 20 19 20 20 19 15 20 22 25 27 30 34 36 36 36 36 36 35 34 33 33 33 32 30 29 27 26 24 24 24 21 12 4 3 3 3
11 11 16 15 18 16 17 17 19 19 17 15 15 18 16 19 20 18 17 20 21 23 27 30 33 35 36 36 36 36 35 35 34 33 33 32 32 30 29 27 25 23 24 24 18 9 6 2 1
11 14 17 18 19 17 16 18 18 17 17 20 18 18 19 19 20 20 19 20 21 25 28 29 32 34 35 35 36 36 35 34 34 33 33 32 33 31 30 29 27 25 25 24 23 14 10 4 1
16 16 16 19 18 20 18 17 17 17 16 17 20 19 19 19 20 20 18 18 23 26 28 29 31 32 33 35 35 35 35 35 34 34 34 34 33 32 32 30 28 27 25 22 23 19 14 8 4
15 15 18 18 19 17 18 18 17 17 17 18 21 19 21 18 19 19 20 19 23 25 26 27 27 28 31 33 35 35 34 34 34 34 33 34 34 33 33 31 29 28 26 24 24 25 17 11 7
15 15 17 19 18 17 17 17 16 15 18 18 20 22 20 18 19 18 19 21 23 25 25 25 25 26 28 32 35 35 35 34 34 34 34 34 34 32 32 32 30 29 27 25 26 28 21 14 10
16 18 18 18 16 15 16 16 16 18 16 20 20 20 19 17 17 18 20 21 22 23 23 23 23 23 25 30 33 34 35 35 34 34 34 35 33 33 31 33 32 30 29 27 26 28 25 16 13
16 16 16 18 15 16 16 16 16 16 18 18 19 19 20 22 19 19 19 19 20 21 22 22 23 22 23 26 32 33 34 36 36 35 34 34 34 34 32 32 33 32 30 30 27 27 33 18 16
16 16 17 16 16 16 16 16 17 16 15 17 14 16 19 20 20 20 19 17 17 18 19 21 22 21 22 23 29 32 33 35 36 37 34 33 33 32 32 32 31 32 31 30 29 31 33 25 20
18 16 15 16 16 16 16 17 18 17 15 13 12 13 16 19 21 21 19 18 17 17 18 18 19 19 19 22 26 30 32 33 34 37 33 32 32 32 32 32 31 32 32 31 32 33 32 29 27
19 16 14 15 17 18 16 16 14 17 14 14 16 20 19 17 18 19 19 18 18 20 18 18 18 19 17 20 23 27 30 32 31 36 33 32 32 31 32 30 31 31 32 31 32 33 32 33 26
17 17 17 16 16 17 17 18 16 10 10 16 16 17 18 20 20 18 18 17 18 17 15 15 16 18 16 18 19 26 29 30 29 33 34 33 33 32 32 32 31 32 31 32 33 32 33 30 28
18 15 17 16 16 16 17 15 14 10 6 8 14 16 18 18 19 18 16 16 16 16 15 14 14 15 14 16 16 22 26 29 27 28 35 33 34 33 33 33 32 33 32 30 34 34 33 32 36
17 16 17 17 16 18 19 18 19 16 7 8 13 14 16 18 19 19 17 15 14 14 13 14 13 14 14 14 15 17 22 27 27 24 36 35 35 34 34 34 33 33 32 35 37 34 35 34 30
16 20 19 17 19 20 23 19 13 12 14 11 12 14 16 18 19 19 17 16 15 13 12 12 12 13 13 12 14 15 18 24 28 23 31 37 36 35 34 35 34 33 31 36 37 34 36 35 31
20 20 24 19 22 21 25 20 21 10 11 10 11 14 17 19 19 18 17 16 14 13 13 12 13 13 15 14 12 15 15 20 25 21 19 36 36 35 35 35 34 34 34 35 33 37 38 37 34
20 26 28 24 21 23 21 20 23 12 9 9 10 13 17 19 20 20 20 18 15 13 12 13 13 13 13 14 14 13 14 15 24 26 32 38 37 35 35 35 35 35 36 34 35 35 37 41 38
25 27 26 21 25 23 18 16 13 8 6 7 9 10 14 17 20 22 22 22 20 18 15 14 14 13 13 15 15 14 14 14 22 35 30 31 36 33 34 35 35 34 34 36 36 36 37 40 39
22 22 20 18 25 30 21 16 14 9 5 6 5 9 12 16 18 20 22 22 21 21 19 17 16 14 14 15 17 17 18 17 15 31 32 31 32 33 33 34 34 33 33 34 36 38 39 39 36
21 20 22 20 25 29 23 14 18 14 6 7 6 8 10 15 19 20 20 21 21 21 20 17 16 15 14 16 19 20 19 18 16 19 32 23 13 30 29 31 33 34 34 34 34 37 37 36 35
26 24 24 21 25 22 27 22 22 20 18 13 10 10 12 16 20 23 23 24 23 22 21 20 19 19 18 17 20 23 23 20 19 15 34 32 30 27 30 32 34 35 35 35 35 34 35 38 36
28 24 24 24 31 28 29 27 25 22 22 15 12 13 15 17 19 22 24 24 24 24 24 22 21 21 21 20 20 22 23 25 22 18 16 35 32 31 31 33 33 35 35 36 35 34 34 35 41
23 27 23 23 23 26 22 28 26 22 25 18 14 13 16 18 22 26 28 28 29 29 28 26 26 24 23 22 23 24 24 24 24 20 13 34 35 33 33 32 34 34 35 36 35 36 36 35 37
23 27 22 22 22 26 23 31 28 27 27 25 23 21 21 21 27 29 28 28 28 29 29 28 27 25 23 23 26 26 24 23 23 22 17 13 36 35 32 32 33 34 34 36 37 36 37 37 36
30 28 29 28 28 28 23 30 20 25 20 24 23 24 24 26 31 32 32 32 31 32 33 31 30 29 28 29 28 27 26 25 23 22 19 15 20 36 35 31 32 34 33 35 36 37 38 38 39
25 25 26 32 34 35 26 24 25 22 20 22 23 26 28 29 34 38 39 35 35 35 36 35 34 34 34 33 31 29 27 28 27 26 21 17 14 34 36 34 34 33 34 35 36 37 38 38 40
23 23 20 26 26 32 26 25 26 18 22 22 27 32 32 32 41 45 45 40 38 37 38 37 36 35 35 34 34 32 30 28 28 30 25 24 19 13 34 37 37 36 34 35 37 38 40 39 40
22 19 25 27 33 37 32 30 29 19 24 24 34 40 41 41 42 45 45 43 39 38 38 38 36 37 37 34 31 33 33 31 32 35 31 24 20 17 25 36 38 37 37 35 35 39 39 41 41
21 20 22 24 25 31 39 35 24 26 25 25 38 41 43 45 45 48 49 43 39 38 41 41 40 37 35 34 33 35 38 35 34 37 33 27 21 20 22 34 37 39 40 41 41 40 41 42 43
19 22 22 28 30 26 32 37 24 24 22 32 42 43 44 45 49 50 47 43 41 40 44 44 39 37 34 35 38 39 42 37 35 37 35 28 24 21 20 35 40 41 42 42 43 45 42 45 45
Wind_Direction
240 225 187 123 33 35 29 31 43 30 37 40 27 27 21 16 11 3 23 9 6 3 1 356 351 345 340 333 326 324 319 312 310 311 305 303 302 305 308 306 300 285 270 268 279 303 337 13 30
220 213 103 92 21 35 32 37 27 30 40 45 41 28 27 15 12 17 13 11 10 9 4 359 357 347 340 333 328 322 319 315 309 305 306 301 299 297 302 301 300 295 279 262 266 271 278 315 48
182 115 24 20 7 20 24 27 33 36 39 30 32 30 21 15 12 9 12 14 13 6 2 2 359 354 345 337 327 320 317 315 312 303 302 300 297 294 293 297 294 292 284 269 258 264 264 260 224
75 71 59 5 18 7 23 29 33 36 40 37 25 21 19 14 11 11 21 20 13 7 4 3 4 5 359 348 339 326 319 314 310 308 299 296 294 289 289 290 292 290 289 272 262 260 255 247 227
71 63 20 15 9 25 28 29 35 34 32 24 18 17 7 16 19 21 19 20 12 9 10 11 12 13 4 357 349 341 328 319 312 306 304 296 292 291 286 286 289 288 286 277 267 256 250 240 227
49 53 12 4 15 28 34 34 37 35 25 19 16 9 11 19 14 16 18 13 13 11 14 16 16 17 13 358 351 352 342 329 320 310 303 299 292 288 286 282 283 284 284 279 268 255 248 234 223
39 5 6 17 26 31 32 33 28 20 22 14 14 9 13 15 17 16 14 11 12 12 16 19 19 20 16 359 352 352 353 338 327 318 306 298 296 287 288 281 277 280 281 276 272 259 247 231 222
35 26 21 12 24 16 26 26 27 22 15 17 16 16 11 7 11 10 11 11 9 11 14 16 17 19 17 5 351 348 350 346 334 323 314 301 290 291 286 281 275 276 277 273 270 265 248 227 220
30 20 14 20 21 19 27 24 24 21 13 10 19 13 9 6 5 3 4 7 10 9 14 14 14 17 17 9 356 347 346 347 347 326 315 306 293 286 286 278 279 273 275 273 267 261 257 220 219
1 20 29 25 23 19 19 17 12 14 12 10 12 11 9 7 2 359 0 1 4 7 7 11 11 11 11 7 357 350 346 348 352 330 312 306 298 290 286 281 279 276 272 270 268 263 266 250 233
354 18 37 28 18 15 17 12 19 11 12 20 15 10 11 7 3 359 356 357 358 3 6 3 4 5 7 5 358 350 345 348 355 339 310 303 298 293 288 285 275 276 271 268 267 265 263 256 240
8 13 15 23 19 20 13 9 7 5 17 20 16 12 6 1 359 357 356 355 354 359 358 360 0 1 2 3 1 349 342 344 351 346 312 303 296 291 284 285 281 273 272 268 264 266 263 261 266
3 17 12 18 20 16 9 3 2 348 356 8 13 11 8 5 2 359 356 355 357 355 355 355 356 357 360 359 358 351 342 339 344 349 313 302 297 289 286 281 280 277 267 272 267 265 262 261 254
4 11 9 13 17 9 6 1 3 6 25 22 15 13 10 7 4 1 359 355 355 355 353 353 353 355 358 356 355 352 346 337 338 345 312 302 297 290 284 281 278 279 273 268 267 265 262 261 270
12 351 0 10 9 6 4 5 6 15 24 21 13 11 9 8 7 4 1 358 357 355 354 352 352 352 353 356 352 352 348 339 334 339 328 302 295 289 284 280 277 277 276 266 263 266 264 259 263
355 357 350 4 0 4 3 0 4 16 16 10 7 7 7 8 10 12 9 3 2 0 358 356 353 352 354 353 352 352 348 342 332 336 338 307 296 288 283 279 277 274 274 269 263 261 256 254 262
356 344 345 354 2 359 2 351 359 13 3 356 358 0 1 6 12 15 13 10 8 3 356 352 351 347 346 350 352 348 345 343 336 330 322 308 296 288 281 277 276 275 268 267 267 266 264 254 257
342 347 351 357 356 355 344 311 327 312 309 332 344 353 360 4 9 14 15 13 10 6 357 351 350 346 345 347 346 347 347 345 343 319 325 323 297 290 281 278 276 276 273 267 266 262 261 253 253
357 357 358 360 358 351 354 323 327 326 313 327 332 356 358 3 9 11 11 10 8 4 360 354 348 341 340 340 343 346 348 345 338 329 321 320 305 288 282 277 274 272 273 271 268 261 259 256 253
3 1 360 2 359 354 358 335 8 21 19 1 2 4 1 3 2 3 4 4 3 359 356 352 345 340 337 338 341 344 344 341 335 337 319 323 322 295 284 279 274 273 271 270 268 262 262 258 252
359 1 2 358 355 6 1 9 17 24 22 21 25 18 11 2 358 358 358 357 357 353 351 348 345 341 335 333 337 339 340 342 341 339 317 307 305 302 285 282 275 272 270 268 269 268 263 256 255
355 3 360 357 356 359 6 2 9 14 14 20 22 12 5 358 355 353 354 353 352 351 351 347 344 340 338 336 333 333 333 337 339 337 335 301 300 295 290 279 276 271 270 267 267 267 265 260 251
2 357 357 359 4 4 13 4 4 10 6 9 8 4 1 358 356 353 352 351 351 351 348 345 344 342 340 337 332 332 331 332 336 337 324 308 292 292 287 283 277 272 269 268 266 265 263 262 258
1 357 2 7 8 3 11 2 2 8 9 14 13 5 3 359 354 351 350 349 346 346 345 343 340 338 336 334 331 328 327 328 331 333 328 319 294 287 287 285 278 274 271 267 265 265 263 261 259
356 358 354 354 357 358 7 357 3 1 8 10 8 1 357 352 349 348 345 344 343 343 342 340 338 336 335 332 330 328 327 327 326 327 328 321 315 287 283 284 279 275 273 268 267 264 262 261 258
360 3 359 348 348 345 353 1 1 6 17 16 13 0 351 348 348 345 343 340 339 340 340 337 335 333 332 330 329 328 326 326 326 326 325 321 311 295 283 280 278 275 273 269 267 265 262 261 258
360 358 5 352 350 347 354 356 354 16 10 11 8 359 350 345 339 339 340 339 338 337 337 336 333 330 330 330 329 327 325 324 322 322 322 321 316 299 288 277 273 272 273 269 267 264 261 260 258
2 5 354 354 346 343 346 348 347 355 358 1 358 352 346 341 338 338 339 337 336 335 336 334 331 329 330 330 329 327 324 323 320 316 318 318 314 304 299 282 275 271 269 270 268 263 262 258 258
355 355 353 349 345 341 340 345 357 350 348 348 346 346 344 340 339 338 337 338 337 337 337 335 332 330 330 329 327 325 320 320 319 313 314 316 312 304 297 286 279 273 270 268 266 265 261 258 256
351 345 344 339 338 336 335 332 348 350 355 347 343 343 341 340 339 338 340 339 338 337 336 335 334 331 329 328 324 322 317 319 318 312 311 313 308 301 292 286 278 274 271 267 266 262 261 258 255